• în România
  • Lista ţărilor
  • Pe 7 zile
  • Temperatura apei
  • Hartă satelitară
  • Meteo pe hartă
  • Widget-uri
  • user-avatar
    Intrare

    Meteo pe oră la Barinas

    Astăzi, 25 Mai, Vineri

    Timp Temperatura Precipitaţii Vânt Presiune Umiditate
    00:00 +25°C° 0,7 mm 1 m/s 744 mmHg 80%
    01:00 +25°C° 0,7 mm 1 m/s 744 mmHg 79%
    02:00 +25°C° 1,4 mm 1 m/s 743 mmHg 81%
    03:00 +25°C° 1,4 mm 1 m/s 743 mmHg 82%
    04:00 +23°C° 1,4 mm 0 m/s 743 mmHg 83%
    05:00 +23°C° 1,8 mm 0 m/s 744 mmHg 83%
    06:00 +23°C° 1,8 mm 0 m/s 744 mmHg 84%
    07:00 +26°C° 1,8 mm 1 m/s 745 mmHg 85%
    08:00 +26°C° 1,8 mm 1 m/s 745 mmHg 85%
    09:00 +26°C° 1,8 mm 1 m/s 745 mmHg 86%
    10:00 +27°C° 1,8 mm 1 m/s 745 mmHg 87%
    11:00 +27°C° 1,3 mm 1 m/s 744 mmHg 85%
    12:00 +28°C° 1,3 mm 2 m/s 744 mmHg 83%
    13:00 +29°C° 1,3 mm 2 m/s 744 mmHg 81%
    14:00 +28°C° 1,7 mm 2 m/s 743 mmHg 84%
    15:00 +27°C° 1,7 mm 2 m/s 743 mmHg 87%
    16:00 +27°C° 1,7 mm 2 m/s 742 mmHg 89%
    17:00 +26°C° 0,7 mm 1 m/s 742 mmHg 90%
    18:00 +26°C° 0,7 mm 1 m/s 743 mmHg 91%
    19:00 +25°C° 0,7 mm 1 m/s 743 mmHg 91%
    20:00 +25°C° 0,4 mm 1 m/s 743 mmHg 90%
    21:00 +23°C° 0,4 mm 0 m/s 743 mmHg 89%
    22:00 +23°C° 0,4 mm 0 m/s 744 mmHg 88%
    23:00 +23°C° 0,2 mm 0 m/s 744 mmHg 88%

    Mâine, 26 Mai, Sâmbătă

    Timp Temperatura Precipitaţii Vânt Presiune Umiditate
    00:00 +23°C° 0,2 mm 0 m/s 743 mmHg 89%
    01:00 +22°C° 0,2 mm 0 m/s 743 mmHg 89%
    02:00 +22°C° 0,1 mm 0 m/s 743 mmHg 89%
    03:00 +22°C° 0,1 mm 0 m/s 743 mmHg 88%
    04:00 +24°C° 0,1 mm 1 m/s 743 mmHg 87%
    05:00 +25°C° 0,1 mm 1 m/s 743 mmHg 85%
    06:00 +25°C° 0,1 mm 1 m/s 744 mmHg 83%
    07:00 +26°C° 0,1 mm 1 m/s 744 mmHg 81%
    08:00 +27°C° 0,1 mm 1 m/s 744 mmHg 75%
    09:00 +29°C° 0,1 mm 1 m/s 744 mmHg 68%
    10:00 +30°C° 0,1 mm 1 m/s 744 mmHg 62%
    11:00 +31°C° 0 mm 1 m/s 744 mmHg 59%
    12:00 +32°C° 0 mm 1 m/s 743 mmHg 55%
    13:00 +33°C° 0 mm 1 m/s 742 mmHg 51%
    14:00 +33°C° 0 mm 1 m/s 742 mmHg 55%
    15:00 +33°C° 0 mm 1 m/s 741 mmHg 58%
    16:00 +32°C° 0 mm 1 m/s 741 mmHg 61%
    17:00 +30°C° 0,4 mm 1 m/s 741 mmHg 67%
    18:00 +29°C° 0,4 mm 1 m/s 742 mmHg 74%
    19:00 +27°C° 0,4 mm 1 m/s 742 mmHg 80%
    20:00 +27°C° 0,3 mm 1 m/s 743 mmHg 80%
    21:00 +26°C° 0,3 mm 1 m/s 743 mmHg 79%
    22:00 +26°C° 0,3 mm 1 m/s 743 mmHg 78%
    23:00 +26°C° 0,2 mm 1 m/s 743 mmHg 76%

    Poimâine, 27 Mai, Duminică

    Timp Temperatura Precipitaţii Vânt Presiune Umiditate
    00:00 +26°C° 0,2 mm 1 m/s 743 mmHg 74%
    01:00 +25°C° 0,2 mm 1 m/s 742 mmHg 73%
    02:00 +25°C° 0,6 mm 1 m/s 743 mmHg 73%
    03:00 +25°C° 0,6 mm 1 m/s 743 mmHg 73%
    04:00 +25°C° 0,6 mm 1 m/s 743 mmHg 74%
    05:00 +25°C° 1 mm 1 m/s 743 mmHg 75%
    06:00 +26°C° 1 mm 1 m/s 744 mmHg 77%
    07:00 +26°C° 1 mm 1 m/s 744 mmHg 79%
    08:00 +27°C° 1 mm 1 m/s 744 mmHg 78%
    09:00 +28°C° 1 mm 1 m/s 745 mmHg 76%
    10:00 +29°C° 1 mm 1 m/s 745 mmHg 75%
    11:00 +29°C° 1,2 mm 1 m/s 744 mmHg 76%
    12:00 +29°C° 1,2 mm 1 m/s 744 mmHg 78%
    13:00 +29°C° 1,2 mm 2 m/s 743 mmHg 80%
    14:00 +29°C° 1,2 mm 1 m/s 743 mmHg 79%
    15:00 +29°C° 1,2 mm 1 m/s 742 mmHg 77%
    16:00 +30°C° 1,2 mm 1 m/s 741 mmHg 76%
    17:00 +29°C° 0,8 mm 1 m/s 742 mmHg 79%
    18:00 +28°C° 0,8 mm 1 m/s 742 mmHg 82%
    19:00 +26°C° 0,8 mm 1 m/s 743 mmHg 85%
    20:00 +26°C° 0,4 mm 1 m/s 743 mmHg 83%
    21:00 +26°C° 0,4 mm 1 m/s 744 mmHg 81%
    22:00 +26°C° 0,4 mm 1 m/s 744 mmHg 79%
    23:00 +26°C° 0,6 mm 2 m/s 744 mmHg 79%

    28 Mai, Luni

    Timp Temperatura Precipitaţii Vânt Presiune Umiditate
    00:00 +26°C° 0,6 mm 2 m/s 743 mmHg 79%
    01:00 +25°C° 0,6 mm 2 m/s 743 mmHg 79%
    02:00 +25°C° 0,6 mm 2 m/s 743 mmHg 80%
    03:00 +25°C° 0,6 mm 2 m/s 743 mmHg 81%
    04:00 +25°C° 0,6 mm 2 m/s 743 mmHg 82%
    05:00 +26°C° 1 mm 2 m/s 743 mmHg 83%
    06:00 +26°C° 1 mm 2 m/s 744 mmHg 83%
    07:00 +27°C° 1 mm 1 m/s 744 mmHg 83%
    08:00 +27°C° 0,8 mm 2 m/s 745 mmHg 81%
    09:00 +28°C° 0,8 mm 2 m/s 745 mmHg 80%
    10:00 +29°C° 0,8 mm 2 m/s 745 mmHg 78%
    11:00 +30°C° 1,6 mm 2 m/s 744 mmHg 76%
    12:00 +30°C° 1,6 mm 2 m/s 744 mmHg 74%
    13:00 +31°C° 1,6 mm 2 m/s 743 mmHg 73%
    14:00 +31°C° 1,4 mm 2 m/s 743 mmHg 74%
    15:00 +31°C° 1,4 mm 2 m/s 742 mmHg 74%
    16:00 +30°C° 1,4 mm 2 m/s 742 mmHg 75%
    17:00 +29°C° 1,2 mm 1 m/s 742 mmHg 78%
    18:00 +28°C° 1,2 mm 1 m/s 743 mmHg 81%
    19:00 +27°C° 1,2 mm 1 m/s 743 mmHg 84%
    20:00 +27°C° 1,1 mm 1 m/s 743 mmHg 84%
    21:00 +26°C° 1,1 mm 1 m/s 744 mmHg 83%
    22:00 +26°C° 1,1 mm 1 m/s 744 mmHg 83%
    23:00 +26°C° 1 mm 2 m/s 744 mmHg 82%

    29 Mai, Marţi

    Timp Temperatura Precipitaţii Vânt Presiune Umiditate
    00:00 +26°C° 1 mm 2 m/s 744 mmHg 82%
    01:00 +26°C° 1 mm 2 m/s 743 mmHg 81%
    02:00 +25°C° 1,1 mm 1 m/s 743 mmHg 82%
    03:00 +25°C° 1,1 mm 1 m/s 743 mmHg 83%
    04:00 +25°C° 1,1 mm 1 m/s 743 mmHg 84%
    05:00 +25°C° 1,3 mm 1 m/s 743 mmHg 85%
    06:00 +25°C° 1,3 mm 1 m/s 744 mmHg 86%
    07:00 +26°C° 1,3 mm 1 m/s 744 mmHg 87%
    08:00 +26°C° 1,7 mm 1 m/s 745 mmHg 87%
    09:00 +26°C° 1,7 mm 1 m/s 745 mmHg 87%
    10:00 +27°C° 1,7 mm 2 m/s 745 mmHg 86%
    11:00 +27°C° 2,4 mm 1 m/s 744 mmHg 87%
    12:00 +27°C° 2,4 mm 1 m/s 744 mmHg 87%
    13:00 +27°C° 2,4 mm 1 m/s 743 mmHg 88%
    14:00 +27°C° 3,3 mm 1 m/s 743 mmHg 90%
    15:00 +26°C° 3,3 mm 1 m/s 743 mmHg 92%
    16:00 +25°C° 3,3 mm 1 m/s 743 mmHg 94%
    17:00 +25°C° 3,5 mm 1 m/s 743 mmHg 95%
    18:00 +25°C° 3,5 mm 2 m/s 743 mmHg 95%
    19:00 +24°C° 3,5 mm 2 m/s 744 mmHg 95%
    20:00 +24°C° 2,5 mm 2 m/s 744 mmHg 95%
    21:00 +24°C° 2,5 mm 2 m/s 744 mmHg 94%
    22:00 +24°C° 2,5 mm 2 m/s 745 mmHg 94%
    23:00 +24°C° 1,4 mm 2 m/s 744 mmHg 92%

    30 Mai, Miercuri

    Timp Temperatura Precipitaţii Vânt Presiune Umiditate
    00:00 +24°C° 1,4 mm 2 m/s 744 mmHg 91%
    01:00 +24°C° 1,4 mm 2 m/s 743 mmHg 89%
    02:00 +24°C° 1,1 mm 2 m/s 743 mmHg 87%
    03:00 +25°C° 1,1 mm 1 m/s 743 mmHg 85%
    04:00 +25°C° 1,1 mm 1 m/s 743 mmHg 84%
    05:00 +25°C° 0,6 mm 1 m/s 744 mmHg 83%
    06:00 +25°C° 0,6 mm 1 m/s 744 mmHg 82%
    07:00 +26°C° 0,6 mm 1 m/s 745 mmHg 82%
    08:00 +27°C° 0,1 mm 1 m/s 745 mmHg 77%
    09:00 +28°C° 0,1 mm 1 m/s 745 mmHg 72%
    10:00 +30°C° 0,1 mm 1 m/s 745 mmHg 67%
    11:00 +30°C° 0,1 mm 1 m/s 744 mmHg 65%
    12:00 +31°C° 0,1 mm 1 m/s 744 mmHg 62%
    13:00 +30°C° 0,1 mm 0 m/s 743 mmHg 60%
    14:00 +31°C° 0,1 mm 1 m/s 742 mmHg 62%
    15:00 +31°C° 0,1 mm 1 m/s 742 mmHg 65%
    16:00 +31°C° 0,1 mm 1 m/s 741 mmHg 67%
    17:00 +29°C° 0,2 mm 1 m/s 742 mmHg 72%
    18:00 +28°C° 0,2 mm 1 m/s 742 mmHg 77%
    19:00 +27°C° 0,2 mm 1 m/s 743 mmHg 82%
    20:00 +26°C° 0,2 mm 1 m/s 743 mmHg 82%
    21:00 +26°C° 0,2 mm 1 m/s 743 mmHg 81%
    22:00 +26°C° 0,2 mm 1 m/s 743 mmHg 81%
    23:00 +26°C° 0,1 mm 1 m/s 743 mmHg 79%
    Arată mai mult